Time,TemperatureF,DewpointF,PressureIn,WindDirection,WindDirectionDegrees,WindSpeedMPH,WindSpeedGustMPH,Humidity,HourlyPrecipIn,Conditions,Clouds,dailyrainin,SoftwareType,DateUTC
2013-03-28 00:13:00,55.0,28.0,30.10,South,179,6.0,-999.0,36,-99.99,,,0.00,weatherlink.com 1.10,2013-03-28 05:13:00,
2013-03-28 00:28:00,54.5,28.0,30.10,SSE,166,6.0,-999.0,36,-99.99,,,0.00,weatherlink.com 1.10,2013-03-28 05:28:00,
2013-03-28 00:43:00,54.1,28.0,30.10,South,171,5.0,-999.0,37,-99.99,,,0.00,weatherlink.com 1.10,2013-03-28 05:43:00,
2013-03-28 00:58:00,53.6,28.0,30.10,SSE,161,5.0,-999.0,37,-99.99,,,0.00,weatherlink.com 1.10,2013-03-28 05:58:00,
2013-03-28 01:13:00,53.5,28.0,30.10,SSE,163,5.0,-999.0,37,-99.99,,,0.00,weatherlink.com 1.10,2013-03-28 06:13:00,
2013-03-28 01:28:00,53.2,27.0,30.10,SSE,157,5.0,-999.0,37,-99.99,,,0.00,weatherlink.com 1.10,2013-03-28 06:28:00,
2013-03-28 01:43:00,52.9,27.0,30.11,SSE,148,4.0,-999.0,37,-99.99,,,0.00,weatherlink.com 1.10,2013-03-28 06:43:00,
2013-03-28 01:58:00,52.3,28.0,30.10,SSE,150,4.0,-999.0,39,-99.99,,,0.00,weatherlink.com 1.10,2013-03-28 06:58:00,
2013-03-28 02:13:00,51.4,27.0,30.10,SSE,151,1.0,-999.0,39,-99.99,,,0.00,weatherlink.com 1.10,2013-03-28 07:13:00,
2013-03-28 02:28:00,51.0,28.0,30.10,ESE,123,2.0,-999.0,41,-99.99,,,0.00,weatherlink.com 1.10,2013-03-28 07:28:00,
2013-03-28 02:43:00,50.7,28.0,30.10,SE,144,6.0,-999.0,42,-99.99,,,0.00,weatherlink.com 1.10,2013-03-28 07:43:00,
2013-03-28 02:58:00,50.2,28.0,30.10,SE,146,2.0,-999.0,43,-99.99,,,0.00,weatherlink.com 1.10,2013-03-28 07:58:00,
2013-03-28 03:13:00,49.6,28.0,30.10,SSE,149,3.0,-999.0,44,-99.99,,,0.00,weatherlink.com 1.10,2013-03-28 08:13:00,
2013-03-28 03:28:00,49.1,29.0,30.09,SSE,161,4.0,-999.0,46,-99.99,,,0.00,weatherlink.com 1.10,2013-03-28 08:28:00,
2013-03-28 03:43:00,48.9,29.0,30.09,SE,143,6.0,-999.0,46,-99.99,,,0.00,weatherlink.com 1.10,2013-03-28 08:43:00,
2013-03-28 03:58:00,48.9,29.0,30.09,SE,140,1.0,-999.0,47,-99.99,,,0.00,weatherlink.com 1.10,2013-03-28 08:58:00,
2013-03-28 04:13:00,48.9,29.0,30.09,SE,146,3.0,-999.0,47,-99.99,,,0.00,weatherlink.com 1.10,2013-03-28 09:13:00,
2013-03-28 04:28:00,49.1,29.0,30.09,SSE,150,5.0,-999.0,47,-99.99,,,0.00,weatherlink.com 1.10,2013-03-28 09:28:00,
2013-03-28 04:43:00,49.1,29.0,30.09,SSE,151,2.0,-999.0,47,-99.99,,,0.00,weatherlink.com 1.10,2013-03-28 09:43:00,
2013-03-28 04:58:00,49.1,29.0,30.09,SSE,155,5.0,-999.0,47,-99.99,,,0.00,weatherlink.com 1.10,2013-03-28 09:58:00,
2013-03-28 05:13:00,48.8,29.0,30.09,SSE,159,5.0,-999.0,47,-99.99,,,0.00,weatherlink.com 1.10,2013-03-28 10:13:00,
2013-03-28 05:28:00,48.6,29.0,30.09,SSE,150,6.0,-999.0,47,-99.99,,,0.00,weatherlink.com 1.10,2013-03-28 10:28:00,
2013-03-28 05:43:00,48.8,30.0,30.09,SE,132,5.0,-999.0,48,-99.99,,,0.00,weatherlink.com 1.10,2013-03-28 10:43:00,
2013-03-28 05:58:00,48.9,29.0,30.10,SE,131,6.0,-999.0,47,-99.99,,,0.00,weatherlink.com 1.10,2013-03-28 10:58:00,
2013-03-28 06:13:00,48.9,30.0,30.10,SSE,161,6.0,-999.0,48,-99.99,,,0.00,weatherlink.com 1.10,2013-03-28 11:13:00,
2013-03-28 06:28:00,48.6,30.0,30.10,SSE,159,5.0,-999.0,48,-99.99,,,0.00,weatherlink.com 1.10,2013-03-28 11:28:00,
2013-03-28 06:43:00,48.5,30.0,30.10,South,172,5.0,-999.0,49,-99.99,,,0.00,weatherlink.com 1.10,2013-03-28 11:43:00,
2013-03-28 06:58:00,48.2,31.0,30.11,South,169,7.0,-999.0,51,-99.99,,,0.00,weatherlink.com 1.10,2013-03-28 11:58:00,
2013-03-28 07:13:00,47.7,31.0,30.11,SSE,165,4.0,-999.0,52,-99.99,,,0.00,weatherlink.com 1.10,2013-03-28 12:13:00,
2013-03-28 07:28:00,47.4,31.0,30.12,SE,146,5.0,-999.0,54,-99.99,,,0.00,weatherlink.com 1.10,2013-03-28 12:28:00,
2013-03-28 07:43:00,47.3,32.0,30.12,South,173,4.0,-999.0,55,-99.99,,,0.00,weatherlink.com 1.10,2013-03-28 12:43:00,
2013-03-28 07:58:00,47.4,32.0,30.13,SSE,150,5.0,-999.0,55,-99.99,,,0.00,weatherlink.com 1.10,2013-03-28 12:58:00,
2013-03-28 08:13:00,48.0,32.0,30.13,SSE,165,4.0,-999.0,55,-99.99,,,0.00,weatherlink.com 1.10,2013-03-28 13:13:00,
2013-03-28 08:28:00,48.9,33.0,30.14,SSW,192,5.0,-999.0,55,-99.99,,,0.00,weatherlink.com 1.10,2013-03-28 13:28:00,
2013-03-28 08:43:00,49.6,34.0,30.14,SSE,159,11.0,-999.0,55,-99.99,,,0.00,weatherlink.com 1.10,2013-03-28 13:43:00,
2013-03-28 08:58:00,50.7,34.0,30.14,SSE,159,7.0,-999.0,54,-99.99,,,0.00,weatherlink.com 1.10,2013-03-28 13:58:00,
2013-03-28 09:13:00,51.6,36.0,30.14,SSW,199,10.0,-999.0,55,-99.99,,,0.00,weatherlink.com 1.10,2013-03-28 14:13:00,
2013-03-28 09:28:00,52.8,37.0,30.14,South,169,6.0,-999.0,56,-99.99,,,0.00,weatherlink.com 1.10,2013-03-28 14:28:00,
2013-03-28 09:43:00,53.9,38.0,30.14,South,181,9.0,-999.0,55,-99.99,,,0.00,weatherlink.com 1.10,2013-03-28 14:43:00,
2013-03-28 09:58:00,55.9,40.0,30.14,SSW,213,7.0,-999.0,55,-99.99,,,0.00,weatherlink.com 1.10,2013-03-28 14:58:00,
2013-03-28 10:13:00,57.3,41.0,30.14,South,182,12.0,-999.0,55,-99.99,,,0.00,weatherlink.com 1.10,2013-03-28 15:13:00,
2013-03-28 10:28:00,58.0,41.0,30.14,SSW,193,7.0,-999.0,54,-99.99,,,0.00,weatherlink.com 1.10,2013-03-28 15:28:00,
2013-03-28 10:43:00,59.2,42.0,30.14,SSW,212,4.0,-999.0,54,-99.99,,,0.00,weatherlink.com 1.10,2013-03-28 15:43:00,
2013-03-28 10:58:00,60.4,44.0,30.14,SSW,208,13.0,-999.0,55,-99.99,,,0.00,weatherlink.com 1.10,2013-03-28 15:58:00,
2013-03-28 11:13:00,60.9,44.0,30.14,South,188,3.0,-999.0,55,-99.99,,,0.00,weatherlink.com 1.10,2013-03-28 16:13:00,
2013-03-28 11:28:00,61.3,45.0,30.14,SSE,166,6.0,-999.0,55,-99.99,,,0.00,weatherlink.com 1.10,2013-03-28 16:28:00,
2013-03-28 11:43:00,62.0,45.0,30.15,South,180,9.0,-999.0,54,-99.99,,,0.00,weatherlink.com 1.10,2013-03-28 16:43:00,
2013-03-28 11:58:00,62.6,46.0,30.15,SSW,203,16.0,-999.0,54,-99.99,,,0.00,weatherlink.com 1.10,2013-03-28 16:58:00,
2013-03-28 12:13:00,63.2,46.0,30.14,SSW,211,5.0,-999.0,54,-99.99,,,0.00,weatherlink.com 1.10,2013-03-28 17:13:00,
2013-03-28 12:28:00,63.9,46.0,30.14,South,188,9.0,-999.0,53,-99.99,,,0.00,weatherlink.com 1.10,2013-03-28 17:28:00,
2013-03-28 12:43:00,64.3,47.0,30.13,South,188,12.0,-999.0,53,-99.99,,,0.00,weatherlink.com 1.10,2013-03-28 17:43:00,
2013-03-28 12:58:00,64.5,47.0,30.12,SE,125,12.0,-999.0,53,-99.99,,,0.00,weatherlink.com 1.10,2013-03-28 17:58:00,
2013-03-28 13:13:00,65.5,49.0,30.12,SSE,167,11.0,-999.0,55,-99.99,,,0.00,weatherlink.com 1.10,2013-03-28 18:13:00,
2013-03-28 13:28:00,66.1,48.0,30.11,SSE,160,2.0,-999.0,53,-99.99,,,0.00,weatherlink.com 1.10,2013-03-28 18:28:00,
2013-03-28 13:43:00,67.6,49.0,30.11,South,169,3.0,-999.0,51,-99.99,,,0.00,weatherlink.com 1.10,2013-03-28 18:43:00,
2013-03-28 13:58:00,67.9,48.0,30.09,SSW,197,7.0,-999.0,50,-99.99,,,0.00,weatherlink.com 1.10,2013-03-28 18:58:00,
2013-03-28 14:13:00,67.9,48.0,30.09,SE,146,13.0,-999.0,50,-99.99,,,0.00,weatherlink.com 1.10,2013-03-28 19:13:00,
2013-03-28 14:28:00,69.3,49.0,30.08,SSE,165,16.0,-999.0,48,-99.99,,,0.00,weatherlink.com 1.10,2013-03-28 19:28:00,
2013-03-28 14:43:00,70.3,49.0,30.07,SSE,153,8.0,-999.0,47,-99.99,,,0.00,weatherlink.com 1.10,2013-03-28 19:43:00,
2013-03-28 14:58:00,70.9,48.0,30.07,SW,219,9.0,-999.0,45,-99.99,,,0.00,weatherlink.com 1.10,2013-03-28 19:58:00,
2013-03-28 15:13:00,71.1,48.0,30.06,SSE,151,11.0,-999.0,44,-99.99,,,0.00,weatherlink.com 1.10,2013-03-28 20:13:00,
2013-03-28 15:28:00,71.6,48.0,30.05,SSE,148,9.0,-999.0,44,-99.99,,,0.00,weatherlink.com 1.10,2013-03-28 20:28:00,
2013-03-28 15:43:00,72.1,48.0,30.05,SSE,159,12.0,-999.0,43,-99.99,,,0.00,weatherlink.com 1.10,2013-03-28 20:43:00,
2013-03-28 15:58:00,71.3,48.0,30.04,South,177,10.0,-999.0,44,-99.99,,,0.00,weatherlink.com 1.10,2013-03-28 20:58:00,
2013-03-28 16:13:00,72.0,48.0,30.04,South,183,4.0,-999.0,43,-99.99,,,0.00,weatherlink.com 1.10,2013-03-28 21:13:00,
2013-03-28 16:28:00,71.6,48.0,30.03,SSE,148,5.0,-999.0,44,-99.99,,,0.00,weatherlink.com 1.10,2013-03-28 21:28:00,
2013-03-28 16:43:00,72.3,48.0,30.02,SSE,165,9.0,-999.0,43,-99.99,,,0.00,weatherlink.com 1.10,2013-03-28 21:43:00,
2013-03-28 16:58:00,71.6,48.0,30.02,SSW,194,15.0,-999.0,43,-99.99,,,0.00,weatherlink.com 1.10,2013-03-28 21:58:00,
2013-03-28 17:13:00,71.8,48.0,30.02,South,175,14.0,-999.0,43,-99.99,,,0.00,weatherlink.com 1.10,2013-03-28 22:13:00,
2013-03-28 17:28:00,72.1,48.0,30.02,South,180,10.0,-999.0,43,-99.99,,,0.00,weatherlink.com 1.10,2013-03-28 22:28:00,
2013-03-28 17:43:00,71.3,49.0,30.01,SE,134,12.0,-999.0,45,-99.99,,,0.00,weatherlink.com 1.10,2013-03-28 22:43:00,
2013-03-28 17:58:00,71.3,49.0,30.01,SSE,153,9.0,-999.0,45,-99.99,,,0.00,weatherlink.com 1.10,2013-03-28 22:58:00,
2013-03-28 18:13:00,70.6,48.0,30.01,SSE,153,10.0,-999.0,45,-99.99,,,0.00,weatherlink.com 1.10,2013-03-28 23:13:00,
2013-03-28 18:28:00,70.3,48.0,30.02,South,171,15.0,-999.0,46,-99.99,,,0.00,weatherlink.com 1.10,2013-03-28 23:28:00,
2013-03-28 18:43:00,69.8,48.0,30.03,South,170,12.0,-999.0,46,-99.99,,,0.00,weatherlink.com 1.10,2013-03-28 23:43:00,
2013-03-28 18:58:00,69.3,48.0,30.02,SE,136,4.0,-999.0,47,-99.99,,,0.00,weatherlink.com 1.10,2013-03-28 23:58:00,
2013-03-28 19:13:00,68.8,48.0,30.03,South,173,14.0,-999.0,48,-99.99,,,0.00,weatherlink.com 1.10,2013-03-29 00:13:00,
2013-03-28 19:28:00,68.4,49.0,30.03,SSE,154,4.0,-999.0,50,-99.99,,,0.00,weatherlink.com 1.10,2013-03-29 00:28:00,
2013-03-28 19:43:00,67.9,48.0,30.03,South,178,5.0,-999.0,50,-99.99,,,0.00,weatherlink.com 1.10,2013-03-29 00:43:00,
2013-03-28 19:58:00,67.6,49.0,30.04,South,180,9.0,-999.0,51,-99.99,,,0.00,weatherlink.com 1.10,2013-03-29 00:58:00,
2013-03-28 20:13:00,67.4,49.0,30.04,SSE,167,11.0,-999.0,52,-99.99,,,0.00,weatherlink.com 1.10,2013-03-29 01:13:00,
2013-03-28 20:28:00,66.9,49.0,30.05,SSE,164,8.0,-999.0,53,-99.99,,,0.00,weatherlink.com 1.10,2013-03-29 01:28:00,
2013-03-28 20:43:00,66.3,49.0,30.05,SSE,167,0.0,-999.0,54,-99.99,,,0.00,weatherlink.com 1.10,2013-03-29 01:43:00,
2013-03-28 20:58:00,65.8,49.0,30.06,SSE,167,3.0,-999.0,55,-99.99,,,0.00,weatherlink.com 1.10,2013-03-29 01:58:00,
2013-03-28 21:13:00,65.3,49.0,30.06,SSE,167,0.0,-999.0,56,-99.99,,,0.00,weatherlink.com 1.10,2013-03-29 02:13:00,
2013-03-28 21:28:00,65.2,49.0,30.07,South,171,3.0,-999.0,56,-99.99,,,0.00,weatherlink.com 1.10,2013-03-29 02:28:00,
2013-03-28 21:43:00,64.7,49.0,30.07,SSE,161,4.0,-999.0,57,-99.99,,,0.00,weatherlink.com 1.10,2013-03-29 02:43:00,
2013-03-28 21:58:00,64.5,49.0,30.07,SSE,159,1.0,-999.0,57,-99.99,,,0.00,weatherlink.com 1.10,2013-03-29 02:58:00,
2013-03-28 22:13:00,64.3,49.0,30.07,SSE,158,5.0,-999.0,57,-99.99,,,0.00,weatherlink.com 1.10,2013-03-29 03:13:00,
2013-03-28 22:28:00,64.0,48.0,30.07,SSE,163,4.0,-999.0,57,-99.99,,,0.00,weatherlink.com 1.10,2013-03-29 03:28:00,
2013-03-28 22:43:00,63.4,49.0,30.07,South,179,6.0,-999.0,59,-99.99,,,0.00,weatherlink.com 1.10,2013-03-29 03:43:00,
2013-03-28 22:58:00,63.1,49.0,30.07,SSE,167,3.0,-999.0,60,-99.99,,,0.00,weatherlink.com 1.10,2013-03-29 03:58:00,
2013-03-28 23:13:00,62.9,49.0,30.07,South,175,6.0,-999.0,60,-99.99,,,0.00,weatherlink.com 1.10,2013-03-29 04:13:00,
2013-03-28 23:28:00,62.6,49.0,30.07,SSE,168,4.0,-999.0,61,-99.99,,,0.00,weatherlink.com 1.10,2013-03-29 04:28:00,
2013-03-28 23:43:00,62.3,49.0,30.07,South,170,6.0,-999.0,62,-99.99,,,0.00,weatherlink.com 1.10,2013-03-29 04:43:00,
2013-03-28 23:58:00,62.1,49.0,30.07,South,171,0.0,-999.0,62,-99.99,,,0.00,weatherlink.com 1.10,2013-03-29 04:58:00,